TimeCDT,TemperatureF,Dew PointF,Humidity,Sea Level PressureIn,VisibilityMPH,Wind Direction,Wind SpeedMPH,Gust SpeedMPH,PrecipitationIn,Events,Conditions,WindDirDegrees,DateUTC
12:15 AM,57.6,51.6,81,30.01,10.0,SSE,25.3,29.9,N/A,,Scattered Clouds,160,2013-10-14 05:15:00
12:35 AM,57.6,51.6,81,30.01,10.0,SSE,25.3,31.1,N/A,,Scattered Clouds,160,2013-10-14 05:35:00
12:55 AM,57.7,51.4,79,30.01,10.0,South,26.5,31.1,N/A,,Clear,170,2013-10-14 05:55:00
1:15 AM,58.1,51.8,80,30.00,10.0,South,25.3,32.2,N/A,,Clear,170,2013-10-14 06:15:00
1:35 AM,57.9,51.6,80,30.00,10.0,South,25.3,33.4,N/A,,Clear,170,2013-10-14 06:35:00
1:55 AM,57.7,51.3,79,30.00,10.0,South,25.3,32.2,N/A,,Clear,170,2013-10-14 06:55:00
2:15 AM,57.6,51.3,79,29.99,10.0,South,26.5,33.4,N/A,,Clear,170,2013-10-14 07:15:00
2:35 AM,57.2,51.4,81,29.98,10.0,SSE,25.3,31.1,N/A,,Clear,160,2013-10-14 07:35:00
2:55 AM,57.4,51.4,81,29.98,10.0,South,25.3,31.1,N/A,,Clear,170,2013-10-14 07:55:00
3:15 AM,57.2,51.4,81,29.97,10.0,SSE,26.5,34.5,N/A,,Scattered Clouds,160,2013-10-14 08:15:00
3:35 AM,57.7,51.3,79,29.97,10.0,South,27.6,38.0,N/A,,Scattered Clouds,170,2013-10-14 08:35:00
3:55 AM,58.3,51.3,77,29.96,10.0,South,27.6,35.7,N/A,,Mostly Cloudy,170,2013-10-14 08:55:00
4:15 AM,58.6,50.9,75,29.94,10.0,South,26.5,35.7,N/A,,Overcast,180,2013-10-14 09:15:00
4:35 AM,59.0,51.3,75,29.93,10.0,South,27.6,39.1,N/A,,Overcast,170,2013-10-14 09:35:00
4:55 AM,57.4,52.2,83,29.93,10.0,South,24.2,29.9,N/A,,Light Drizzle,170,2013-10-14 09:55:00
5:15 AM,58.1,52.2,81,29.92,10.0,South,23.0,29.9,N/A,,Overcast,170,2013-10-14 10:15:00
5:35 AM,58.1,52.5,82,29.92,10.0,South,23.0,31.1,N/A,Rain,Light Rain,170,2013-10-14 10:35:00
5:55 AM,57.9,52.9,83,29.89,10.0,South,25.3,29.9,N/A,Rain,Light Rain,170,2013-10-14 10:55:00
6:15 AM,58.1,53.1,83,29.88,10.0,South,24.2,32.2,N/A,Rain,Light Rain,170,2013-10-14 11:15:00
6:35 AM,57.7,53.6,86,29.87,7.0,South,26.5,34.5,N/A,Rain,Light Rain,170,2013-10-14 11:35:00
6:55 AM,57.7,53.6,86,29.87,10.0,South,19.6,28.8,N/A,,Mostly Cloudy,170,2013-10-14 11:55:00
7:15 AM,57.9,53.6,86,29.86,10.0,South,23.0,32.2,N/A,,Overcast,170,2013-10-14 12:15:00
7:35 AM,57.6,53.2,85,29.83,10.0,SSE,16.1,-,N/A,,Mostly Cloudy,160,2013-10-14 12:35:00
7:55 AM,57.4,53.1,85,29.84,10.0,South,19.6,24.2,N/A,,Mostly Cloudy,170,2013-10-14 12:55:00
8:15 AM,57.4,53.1,85,29.83,10.0,South,13.8,-,N/A,,Scattered Clouds,170,2013-10-14 13:15:00
8:35 AM,57.7,53.6,86,29.82,10.0,South,19.6,25.3,N/A,,Scattered Clouds,180,2013-10-14 13:35:00
8:55 AM,58.1,53.1,83,29.82,10.0,South,17.3,-,N/A,,Overcast,170,2013-10-14 13:55:00
9:15 AM,58.1,53.1,83,29.81,10.0,South,21.9,29.9,N/A,,Mostly Cloudy,170,2013-10-14 14:15:00
9:35 AM,59.0,53.6,82,29.79,10.0,South,27.6,33.4,N/A,,Mostly Cloudy,180,2013-10-14 14:35:00
9:55 AM,59.5,53.8,81,29.78,10.0,South,27.6,32.2,N/A,,Scattered Clouds,170,2013-10-14 14:55:00
10:15 AM,61.7,54.5,77,29.77,10.0,South,31.1,36.8,N/A,,Mostly Cloudy,170,2013-10-14 15:15:00
10:35 AM,61.7,54.5,77,29.78,10.0,South,28.8,42.6,N/A,,Mostly Cloudy,190,2013-10-14 15:35:00
10:55 AM,61.2,54.5,79,29.77,10.0,South,25.3,35.7,N/A,,Overcast,190,2013-10-14 15:55:00
11:15 AM,61.2,53.4,76,29.75,10.0,SSE,21.9,28.8,N/A,,Overcast,160,2013-10-14 16:15:00
11:35 AM,62.4,50.5,65,29.75,10.0,SSE,16.1,-,N/A,,Mostly Cloudy,160,2013-10-14 16:35:00
11:55 AM,64.4,52.5,65,29.76,10.0,South,18.4,-,N/A,,Clear,190,2013-10-14 16:55:00
12:15 PM,66.4,46.6,49,29.74,10.0,SSW,21.9,-,N/A,,Clear,210,2013-10-14 17:15:00
12:35 PM,69.6,39.4,33,29.72,10.0,SW,31.1,39.1,N/A,,Clear,230,2013-10-14 17:35:00
12:55 PM,71.1,32.5,24,29.70,10.0,SW,34.5,41.4,N/A,,Clear,230,2013-10-14 17:55:00
1:15 PM,72.1,27.9,19,29.70,10.0,WSW,40.3,46.0,N/A,,Clear,250,2013-10-14 18:15:00
1:35 PM,63.0,38.3,40,29.73,7.0,West,40.3,55.2,N/A,,Clear,280,2013-10-14 18:35:00
1:55 PM,62.4,38.3,41,29.75,10.0,WNW,32.2,50.6,N/A,,Clear,290,2013-10-14 18:55:00
2:15 PM,62.2,38.7,42,29.75,10.0,WNW,32.2,43.7,N/A,,Clear,290,2013-10-14 19:15:00
2:35 PM,62.4,38.5,41,29.76,10.0,WNW,32.2,41.4,N/A,,Clear,300,2013-10-14 19:35:00
2:55 PM,63.0,38.5,40,29.77,10.0,NW,24.2,33.4,N/A,,Clear,320,2013-10-14 19:55:00
3:15 PM,64.0,38.5,39,29.78,10.0,West,26.5,33.4,N/A,,Clear,280,2013-10-14 20:15:00
3:35 PM,64.2,37.4,37,29.79,10.0,WNW,24.2,38.0,N/A,,Scattered Clouds,300,2013-10-14 20:35:00
3:55 PM,58.8,42.3,54,29.83,10.0,WNW,28.8,44.9,N/A,,Mostly Cloudy,300,2013-10-14 20:55:00
4:15 PM,54.9,41.2,60,29.86,10.0,WNW,31.1,41.4,N/A,,Overcast,300,2013-10-14 21:15:00
4:35 PM,53.1,39.2,59,29.88,10.0,WNW,26.5,40.3,N/A,,Overcast,300,2013-10-14 21:35:00
4:55 PM,51.1,37.6,60,29.90,10.0,NW,28.8,42.6,N/A,,Overcast,310,2013-10-14 21:55:00
5:15 PM,48.9,36.9,63,29.92,10.0,NW,23.0,36.8,N/A,,Overcast,310,2013-10-14 22:15:00
5:35 PM,46.0,37.4,72,29.93,10.0,NW,19.6,33.4,N/A,,Light Drizzle,310,2013-10-14 22:35:00
5:55 PM,45.7,36.3,70,29.95,10.0,NW,24.2,34.5,N/A,,Light Drizzle,310,2013-10-14 22:55:00
6:15 PM,45.5,34.9,66,29.96,10.0,NW,23.0,29.9,N/A,,Overcast,320,2013-10-14 23:15:00
6:35 PM,45.3,34.0,65,29.97,10.0,NW,15.0,29.9,N/A,,Overcast,320,2013-10-14 23:35:00
6:55 PM,45.0,34.0,65,29.98,10.0,NW,19.6,26.5,N/A,,Mostly Cloudy,310,2013-10-14 23:55:00
7:15 PM,44.6,33.8,66,29.99,10.0,NW,19.6,27.6,N/A,,Clear,320,2013-10-15 00:15:00
7:35 PM,44.1,32.9,65,29.99,10.0,NW,19.6,28.8,N/A,,Clear,310,2013-10-15 00:35:00
7:55 PM,43.9,32.4,64,30.01,10.0,NW,17.3,28.8,N/A,,Clear,320,2013-10-15 00:55:00
8:15 PM,43.9,32.4,64,30.02,10.0,NW,17.3,28.8,N/A,,Clear,320,2013-10-15 01:15:00
8:35 PM,43.7,32.5,65,30.03,10.0,NW,17.3,24.2,N/A,,Clear,320,2013-10-15 01:35:00
8:55 PM,43.7,32.0,63,30.04,10.0,NW,17.3,26.5,N/A,,Clear,320,2013-10-15 01:55:00
9:15 PM,43.0,32.0,65,30.06,10.0,NW,13.8,21.9,N/A,,Clear,310,2013-10-15 02:15:00
9:35 PM,42.6,31.5,65,30.07,10.0,NW,15.0,21.9,N/A,,Clear,310,2013-10-15 02:35:00
9:55 PM,42.1,31.1,65,30.08,10.0,NW,13.8,-,N/A,,Clear,310,2013-10-15 02:55:00
10:15 PM,41.4,31.1,67,30.08,10.0,NW,12.7,20.7,N/A,,Clear,310,2013-10-15 03:15:00
10:35 PM,41.2,30.9,67,30.09,10.0,NW,16.1,20.7,N/A,,Clear,310,2013-10-15 03:35:00
10:55 PM,41.0,30.6,66,30.10,10.0,NW,13.8,24.2,N/A,,Clear,310,2013-10-15 03:55:00
11:15 PM,40.5,30.6,68,30.10,10.0,NW,15.0,21.9,N/A,,Clear,320,2013-10-15 04:15:00
11:35 PM,40.5,30.2,67,30.10,10.0,NW,16.1,23.0,N/A,,Clear,320,2013-10-15 04:35:00
11:55 PM,40.1,30.2,68,30.10,10.0,NW,19.6,26.5,N/A,,Clear,320,2013-10-15 04:55:00